• în Republica Moldova
  • Lista ţărilor
  • Pe 7 zile
  • Temperatura apei
  • Hartă satelitară
  • Meteo pe hartă
  • Widget-uri
  • user-avatar
    Intrare

    Meteo pe oră la Kaprun

    Astăzi, 27 Mai, Sâmbătă

    Timp Temperatura Precipitaţii Vânt Presiune Umiditate
    00:00 +3°C° 0 mm 1 m/s 598 mmHg 96%
    01:00 +2°C° 0 mm 1 m/s 598 mmHg 95%
    02:00 +2°C° 0 mm 1 m/s 598 mmHg 93%
    03:00 +1°C° 0 mm 1 m/s 598 mmHg 91%
    04:00 +1°C° 0 mm 1 m/s 597 mmHg 89%
    05:00 +4°C° 0 mm 1 m/s 599 mmHg 83%
    06:00 +6°C° 0 mm 1 m/s 600 mmHg 77%
    07:00 +9°C° 0 mm 1 m/s 601 mmHg 72%
    08:00 +10°C° 0 mm 1 m/s 602 mmHg 64%
    09:00 +12°C° 0 mm 1 m/s 603 mmHg 56%
    10:00 +14°C° 0 mm 1 m/s 604 mmHg 48%
    11:00 +15°C° 0 mm 1 m/s 604 mmHg 47%
    12:00 +16°C° 0 mm 1 m/s 604 mmHg 46%
    13:00 +16°C° 0 mm 1 m/s 605 mmHg 44%
    14:00 +16°C° 0 mm 2 m/s 604 mmHg 47%
    15:00 +16°C° 0 mm 2 m/s 604 mmHg 51%
    16:00 +16°C° 0 mm 2 m/s 604 mmHg 54%
    17:00 +14°C° 0,1 mm 1 m/s 603 mmHg 65%
    18:00 +12°C° 0,1 mm 1 m/s 602 mmHg 76%
    19:00 +10°C° 0,1 mm 1 m/s 602 mmHg 88%
    20:00 +8°C° 0 mm 1 m/s 601 mmHg 90%
    21:00 +5°C° 0 mm 1 m/s 600 mmHg 93%
    22:00 +3°C° 0 mm 1 m/s 599 mmHg 96%
    23:00 +3°C° 0 mm 1 m/s 600 mmHg 96%

    Mâine, 28 Mai, Duminică

    Timp Temperatura Precipitaţii Vânt Presiune Umiditate
    00:00 +4°C° 0 mm 1 m/s 600 mmHg 95%
    01:00 +4°C° 0 mm 1 m/s 600 mmHg 95%
    02:00 +4°C° 0 mm 1 m/s 600 mmHg 94%
    03:00 +4°C° 0 mm 1 m/s 600 mmHg 94%
    04:00 +4°C° 0 mm 1 m/s 600 mmHg 94%
    05:00 +6°C° 0 mm 1 m/s 601 mmHg 89%
    06:00 +8°C° 0 mm 1 m/s 602 mmHg 83%
    07:00 +10°C° 0 mm 1 m/s 603 mmHg 78%
    08:00 +12°C° 0 mm 1 m/s 604 mmHg 66%
    09:00 +13°C° 0 mm 0 m/s 605 mmHg 55%
    10:00 +15°C° 0 mm 0 m/s 606 mmHg 44%
    11:00 +18°C° 0 mm 1 m/s 606 mmHg 43%
    12:00 +19°C° 0 mm 1 m/s 606 mmHg 42%
    13:00 +19°C° 0 mm 1 m/s 606 mmHg 41%
    14:00 +19°C° 0,1 mm 1 m/s 606 mmHg 45%
    15:00 +18°C° 0,1 mm 1 m/s 605 mmHg 48%
    16:00 +18°C° 0,1 mm 1 m/s 605 mmHg 52%
    17:00 +15°C° 0,1 mm 1 m/s 604 mmHg 63%
    18:00 +13°C° 0,1 mm 1 m/s 603 mmHg 74%
    19:00 +11°C° 0,1 mm 1 m/s 602 mmHg 85%
    20:00 +10°C° 0 mm 1 m/s 602 mmHg 88%
    21:00 +8°C° 0 mm 1 m/s 601 mmHg 91%
    22:00 +6°C° 0 mm 1 m/s 600 mmHg 94%
    23:00 +6°C° 0 mm 1 m/s 600 mmHg 93%

    Poimâine, 29 Mai, Luni

    Timp Temperatura Precipitaţii Vânt Presiune Umiditate
    00:00 +6°C° 0 mm 1 m/s 600 mmHg 93%
    01:00 +6°C° 0 mm 1 m/s 600 mmHg 92%
    02:00 +5°C° 0 mm 1 m/s 600 mmHg 92%
    03:00 +5°C° 0 mm 1 m/s 599 mmHg 92%
    04:00 +5°C° 0 mm 1 m/s 599 mmHg 92%
    05:00 +7°C° 0 mm 1 m/s 600 mmHg 86%
    06:00 +9°C° 0 mm 1 m/s 601 mmHg 80%
    07:00 +12°C° 0 mm 1 m/s 602 mmHg 74%
    08:00 +14°C° 0 mm 1 m/s 603 mmHg 64%
    09:00 +15°C° 0 mm 0 m/s 604 mmHg 55%
    10:00 +17°C° 0 mm 0 m/s 604 mmHg 46%
    11:00 +19°C° 0 mm 1 m/s 604 mmHg 46%
    12:00 +20°C° 0 mm 1 m/s 604 mmHg 45%
    13:00 +20°C° 0 mm 1 m/s 604 mmHg 45%
    14:00 +20°C° 0,2 mm 1 m/s 604 mmHg 49%
    15:00 +19°C° 0,2 mm 1 m/s 603 mmHg 54%
    16:00 +19°C° 0,2 mm 1 m/s 603 mmHg 59%
    17:00 +16°C° 0,6 mm 1 m/s 602 mmHg 69%
    18:00 +14°C° 0,6 mm 1 m/s 601 mmHg 80%
    19:00 +12°C° 0,6 mm 0 m/s 600 mmHg 90%
    20:00 +9°C° 0,2 mm 0 m/s 599 mmHg 92%
    21:00 +8°C° 0,2 mm 1 m/s 599 mmHg 94%
    22:00 +6°C° 0,2 mm 1 m/s 598 mmHg 95%
    23:00 +6°C° 0,1 mm 1 m/s 598 mmHg 95%

    30 Mai, Marţi

    Timp Temperatura Precipitaţii Vânt Presiune Umiditate
    00:00 +6°C° 0,1 mm 1 m/s 598 mmHg 95%
    01:00 +6°C° 0,1 mm 1 m/s 598 mmHg 94%
    02:00 +6°C° 0 mm 1 m/s 597 mmHg 94%
    03:00 +5°C° 0 mm 1 m/s 597 mmHg 93%
    04:00 +5°C° 0 mm 1 m/s 597 mmHg 93%
    05:00 +8°C° 0 mm 1 m/s 598 mmHg 89%
    06:00 +10°C° 0 mm 1 m/s 600 mmHg 84%
    07:00 +12°C° 0 mm 1 m/s 601 mmHg 80%
    08:00 +14°C° 0 mm 1 m/s 602 mmHg 72%
    09:00 +16°C° 0 mm 1 m/s 602 mmHg 63%
    10:00 +19°C° 0 mm 1 m/s 603 mmHg 55%
    11:00 +19°C° 0,3 mm 1 m/s 603 mmHg 57%
    12:00 +19°C° 0,3 mm 1 m/s 603 mmHg 59%
    13:00 +19°C° 0,3 mm 1 m/s 603 mmHg 62%
    14:00 +18°C° 1,4 mm 1 m/s 603 mmHg 67%
    15:00 +16°C° 1,4 mm 1 m/s 602 mmHg 73%
    16:00 +16°C° 1,4 mm 1 m/s 602 mmHg 79%
    17:00 +14°C° 1,4 mm 1 m/s 601 mmHg 84%
    18:00 +13°C° 1,4 mm 1 m/s 601 mmHg 89%
    19:00 +11°C° 1,4 mm 0 m/s 601 mmHg 94%
    20:00 +11°C° 0,7 mm 1 m/s 601 mmHg 95%
    21:00 +10°C° 0,7 mm 1 m/s 601 mmHg 96%
    22:00 +10°C° 0,7 mm 1 m/s 601 mmHg 97%
    23:00 +9°C° 0,6 mm 1 m/s 601 mmHg 97%

    31 Mai, Miercuri

    Timp Temperatura Precipitaţii Vânt Presiune Umiditate
    00:00 +9°C° 0,6 mm 1 m/s 601 mmHg 97%
    01:00 +9°C° 0,6 mm 1 m/s 601 mmHg 97%
    02:00 +9°C° 0,3 mm 1 m/s 600 mmHg 96%
    03:00 +8°C° 0,3 mm 1 m/s 600 mmHg 96%
    04:00 +8°C° 0,3 mm 1 m/s 600 mmHg 96%
    05:00 +9°C° 0 mm 1 m/s 601 mmHg 95%
    06:00 +10°C° 0 mm 1 m/s 601 mmHg 93%
    07:00 +11°C° 0 mm 1 m/s 602 mmHg 91%
    08:00 +12°C° 0,2 mm 1 m/s 602 mmHg 88%
    09:00 +13°C° 0,2 mm 1 m/s 603 mmHg 84%
    10:00 +14°C° 0,2 mm 1 m/s 603 mmHg 80%
    11:00 +15°C° 0,8 mm 1 m/s 603 mmHg 79%
    12:00 +15°C° 0,8 mm 1 m/s 603 mmHg 79%
    13:00 +16°C° 0,8 mm 1 m/s 603 mmHg 79%
    14:00 +15°C° 1,2 mm 1 m/s 603 mmHg 80%
    15:00 +15°C° 1,2 mm 1 m/s 603 mmHg 82%
    16:00 +15°C° 1,2 mm 1 m/s 603 mmHg 83%
    17:00 +14°C° 0,8 mm 1 m/s 602 mmHg 87%
    18:00 +13°C° 0,8 mm 1 m/s 602 mmHg 91%
    19:00 +12°C° 0,8 mm 1 m/s 602 mmHg 94%
    20:00 +10°C° 0,4 mm 1 m/s 601 mmHg 96%
    21:00 +8°C° 0,4 mm 0 m/s 600 mmHg 97%
    22:00 +6°C° 0,4 mm 0 m/s 600 mmHg 98%
    23:00 +6°C° 0,2 mm 0 m/s 600 mmHg 98%

    1 Iunie, Joi

    Timp Temperatura Precipitaţii Vânt Presiune Umiditate
    00:00 +6°C° 0,2 mm 0 m/s 600 mmHg 98%
    01:00 +5°C° 0,2 mm 0 m/s 599 mmHg 98%
    02:00 +5°C° 0 mm 0 m/s 599 mmHg 98%
    03:00 +5°C° 0 mm 0 m/s 599 mmHg 98%
    04:00 +4°C° 0 mm 0 m/s 598 mmHg 98%
    05:00 +6°C° 0 mm 0 m/s 599 mmHg 96%
    06:00 +8°C° 0 mm 0 m/s 601 mmHg 93%
    07:00 +10°C° 0 mm 0 m/s 602 mmHg 91%
    08:00 +11°C° 0,3 mm 0 m/s 602 mmHg 87%
    09:00 +13°C° 0,3 mm 1 m/s 602 mmHg 83%
    10:00 +14°C° 0,3 mm 1 m/s 603 mmHg 79%
    11:00 +15°C° 0,8 mm 1 m/s 603 mmHg 78%
    12:00 +15°C° 0,8 mm 1 m/s 603 mmHg 76%
    13:00 +16°C° 0,8 mm 2 m/s 603 mmHg 74%
    14:00 +16°C° 1 mm 2 m/s 603 mmHg 76%
    15:00 +15°C° 1 mm 2 m/s 602 mmHg 77%
    16:00 +15°C° 1 mm 2 m/s 602 mmHg 78%
    17:00 +14°C° 0,8 mm 1 m/s 602 mmHg 83%
    18:00 +13°C° 0,8 mm 1 m/s 601 mmHg 88%
    19:00 +12°C° 0,8 mm 1 m/s 601 mmHg 93%
    20:00 +10°C° 0,9 mm 1 m/s 600 mmHg 95%
    21:00 +8°C° 0,9 mm 1 m/s 599 mmHg 97%
    22:00 +7°C° 0,9 mm 1 m/s 599 mmHg 98%
    23:00 +7°C° 0,8 mm 1 m/s 599 mmHg 98%
    Arată mai mult